This is the latest recevied weather packets stored in our database for station/object K7DC. If no packets are shown the sender has not sent any weather packets the latest 10 day(s).
| Time | Temp. | Humidity | Pressure | Rain* | Wind** | Luminosity | Snow |
|---|---|---|---|---|---|---|---|
| 1777544496 | 16.11° C | 33% | 1012.8 hPa | 0 mm | - | 0 W/m² | - |
| 1777544193 | 16.11° C | 33% | 1012.8 hPa | 0 mm | - | 0 W/m² | - |
| 1777543890 | 16.11° C | 33% | 1013.2 hPa | 0 mm | - | 0 W/m² | - |
| 1777543587 | 16.11° C | 32% | 1013.2 hPa | 0 mm | - | 0 W/m² | - |
| 1777543283 | 16.11° C | 34% | 1012.6 hPa | 0 mm | - | 0 W/m² | - |
| 1777542979 | 16.11° C | 28% | 1012.8 hPa | 0 mm | - | 0 W/m² | - |
| 1777542675 | 16.11° C | 25% | 1013 hPa | 0 mm | - | 0 W/m² | - |
| 1777542371 | 16.67° C | 26% | 1012.7 hPa | 0 mm | - | 0 W/m² | - |
| 1777541766 | 16.67° C | 25% | 1012.9 hPa | 0 mm | - | 0 W/m² | - |
| 1777541462 | 16.67° C | 26% | 1013 hPa | 0 mm | - | 0 W/m² | - |
| 1777541158 | 16.67° C | 24% | 1013.1 hPa | 0 mm | - | 0 W/m² | - |
| 1777540855 | 17.22° C | 24% | 1012.9 hPa | 0 mm | - | 0 W/m² | - |
| 1777540553 | 17.22° C | 25% | 1013.2 hPa | 0 mm | - | 0 W/m² | - |
| 1777540249 | 16.67° C | 26% | 1013.1 hPa | 0 mm | - | 0 W/m² | - |
| 1777539944 | 16.67° C | 26% | 1013.3 hPa | 0 mm | - | 0 W/m² | - |
| 1777539034 | 16.67° C | 24% | 1013.2 hPa | 0 mm | - | 0 W/m² | - |
| 1777538730 | 17.22° C | 25% | 1013.3 hPa | 0 mm | - | 0 W/m² | - |
| 1777538121 | 17.22° C | 25% | 1013.2 hPa | 0 mm | - | 0 W/m² | - |
| 1777537514 | 17.78° C | 24% | 1013.2 hPa | 0 mm | - | 0 W/m² | - |
| 1777537209 | 17.78° C | 24% | 1013.2 hPa | 0 mm | - | 0 W/m² | - |
| 1777536905 | 17.78° C | 24% | 1013.9 hPa | 0 mm | - | 0 W/m² | - |
| 1777535996 | 17.78° C | 23% | 1013.7 hPa | 0 mm | - | 0 W/m² | - |
| 1777535691 | 18.33° C | 23% | 1014 hPa | 0 mm | - | 0 W/m² | - |
| 1777534783 | 18.89° C | 24% | 1014.5 hPa | 0 mm | - | 0 W/m² | - |
| 1777534479 | 18.89° C | 25% | 1014.3 hPa | 0 mm | - | 0 W/m² | - |
* Rain latest hour (hover to see other rain measurements)
** Current wind speed in m/s (hover to see current wind gust speed)